EA3IR Weather Reports


time (UTC)temp
F
wind
direction
speed
knots
gust
knots
rain 1hr
in
rain 24hr
in
rain mn
in
humidity
%
barometer
mb
20260504041518 59 162 0.9 0.9 0.00 0.00 0.00 87 1011.7
20260504041018 59 162 0.9 1.7 0.00 0.00 0.00 86 1011.8
20260504040518 59 162 0.9 2.6 0.00 0.00 0.00 87 1011.8
20260504040017 59 170 0.9 4.3 0.00 0.00 0.00 86 1011.8
20260504035519 59 198 0.9 1.7 0.00 0.00 0.00 86 1011.8
20260504035018 59 246 1.7 3.5 0.00 0.00 0.00 86 1011.9
20260504034018 59 220 0.9 3.5 0.00 0.00 0.00 86 1012.0
20260504033518 59 250 0.9 3.5 0.00 0.00 0.00 86 1012.0
20260504033018 59 232 0.9 3.5 0.00 0.00 0.00 86 1012.0
20260504032518 59 188 0.9 1.7 0.00 0.00 0.00 86 1012.1
20260504031518 59 238 1.7 3.5 0.00 0.00 0.00 86 1012.2
20260504031018 59 226 1.7 3.5 0.00 0.00 0.00 86 1012.3
20260504030518 59 231 1.7 3.5 0.00 0.00 0.00 86 1012.3
20260504030019 59 235 0.9 2.6 0.00 0.00 0.00 86 1012.2
20260504025518 59 252 0.9 1.7 0.00 0.00 0.00 86 1012.2
20260504025018 59 263 0.9 2.6 0.00 0.00 0.00 86 1012.2
20260504024518 59 263 0.9 2.6 0.00 0.00 0.00 86 1012.2
20260504023517 59 215 0.9 1.7 0.00 0.00 0.00 87 1012.3
20260504023018 59 217 0.0 0.9 0.00 0.00 0.00 87 1012.2
20260504022517 59 0 0.0 0.0 0.00 0.00 0.00 87 1012.3
20260504022017 59 217 0.0 0.9 0.00 0.00 0.00 86 1012.3
20260504021018 58 217 0.0 0.9 0.00 0.00 0.00 86 1012.4
20260504020517 58 217 0.0 0.9 0.00 0.00 0.00 86 1012.4
20260504020018 58 217 0.0 0.9 0.00 0.00 0.00 85 1012.4
20260504014517 58 217 0.9 1.7 0.00 0.00 0.00 84 1012.6
20260504014017 59 216 0.0 0.9 0.00 0.00 0.00 84 1012.6
20260504013518 59 217 0.0 1.7 0.00 0.00 0.00 83 1012.6
20260504012517 60 216 0.0 1.7 0.00 0.00 0.00 83 1012.6
20260504012018 60 217 0.0 1.7 0.00 0.00 0.00 83 1012.6
20260504010518 60 228 0.9 2.6 0.00 0.00 0.00 83 1012.8
20260504010019 61 170 0.0 2.6 0.00 0.00 0.00 83 1012.7
20260504005019 61 246 0.9 2.6 0.00 0.00 0.00 83 1012.9
20260504004017 61 157 0.9 4.3 0.00 0.00 0.00 83 1012.9
20260504003518 60 149 0.9 3.5 0.00 0.00 0.00 84 1012.8
20260504002517 60 140 0.9 2.6 0.00 0.00 0.00 84 1012.9
20260504002019 60 140 0.9 1.7 0.00 0.00 0.00 84 1012.9
20260504001517 60 141 0.9 1.7 0.00 0.00 0.00 84 1012.9
20260504001018 60 141 0.0 1.7 0.00 0.00 0.00 84 1013.0
20260504000517 60 140 0.0 1.7 0.00 0.00 0.00 84 1013.1
20260504000018 61 141 0.0 0.9 0.00 0.00 0.00 84 1013.1
20260503234518 61 140 0.0 2.6 0.00 0.00 0.00 84 1013.3
20260503234017 61 140 0.0 2.6 0.00 0.00 0.00 83 1013.3
20260503233517 61 140 0.0 0.9 0.00 0.00 0.00 83 1013.3
20260503233019 61 141 0.9 0.9 0.00 0.00 0.00 83 1013.3
20260503232519 61 141 0.9 1.7 0.00 0.00 0.00 83 1013.3
20260503232018 61 140 0.9 2.6 0.00 0.00 0.00 83 1013.3
20260503231518 61 141 0.9 1.7 0.00 0.00 0.00 82 1013.3
20260503231018 62 141 0.0 2.6 0.00 0.00 0.00 82 1013.4
20260503230518 62 141 0.0 1.7 0.00 0.00 0.00 82 1013.5
20260503230019 62 140 0.0 0.9 0.00 0.00 0.00 82 1013.6
20260503225517 62 141 0.0 0.9 0.00 0.00 0.00 82 1013.7
20260503225018 62 140 0.0 1.7 0.00 0.00 0.00 82 1013.8
20260503224518 62 141 0.0 2.6 0.00 0.00 0.00 82 1013.8
20260503224018 62 141 0.0 1.7 0.00 0.00 0.00 82 1013.9
20260503223518 62 141 0.0 0.9 0.00 0.00 0.00 82 1013.9
20260503223017 62 141 0.9 2.6 0.00 0.00 0.00 82 1014.0
20260503222517 62 140 0.0 1.7 0.00 0.00 0.00 81 1014.1
20260503221518 62 141 0.9 1.7 0.00 0.00 0.00 81 1014.2
20260503221017 62 140 0.9 1.7 0.00 0.00 0.00 81 1014.2
20260503220517 62 141 0.9 1.7 0.00 0.00 0.00 81 1014.3
20260503220021 62 141 0.9 0.9 0.00 0.00 0.00 81 1014.3
20260503215517 62 141 0.9 2.6 0.00 0.00 0.00 80 1014.4
20260503215017 62 182 0.9 2.6 0.00 0.00 0.00 80 1014.3
20260503214518 62 111 0.9 1.7 0.00 0.00 0.00 80 1014.3
20260503214018 62 113 0.9 2.6 0.00 0.00 0.00 80 1014.2
20260503213519 62 113 0.9 1.7 0.00 0.00 0.00 79 1014.2
20260503213018 62 181 1.7 5.2 0.00 0.00 0.00 79 1014.4
20260503212518 62 162 0.9 3.5 0.00 0.00 0.00 78 1014.4
20260503212017 62 161 1.7 4.3 0.00 0.00 0.00 78 1014.4
20260503211518 62 176 1.7 5.2 0.00 0.00 0.00 77 1014.4
20260503210517 62 174 0.9 3.5 0.00 0.00 0.00 80 1014.5
20260503210018 62 159 1.7 2.6 0.00 0.00 0.00 81 1014.5
20260503205517 62 114 1.7 4.3 0.00 0.00 0.00 82 1014.6
20260503205017 62 171 1.7 4.3 0.00 0.00 0.00 82 1014.6
20260503204019 62 171 1.7 3.5 0.00 0.00 0.00 82 1014.7
20260503203517 62 154 1.7 6.1 0.00 0.00 0.00 82 1014.7
20260503202517 62 179 1.7 3.5 0.00 0.00 0.00 82 1014.8
20260503202018 62 175 1.7 5.2 0.00 0.00 0.00 82 1014.8
20260503201517 62 168 1.7 5.2 0.00 0.00 0.00 82 1014.8
20260503201018 62 139 1.7 4.3 0.00 0.00 0.00 82 1014.6
20260503200517 62 166 1.7 6.1 0.00 0.00 0.00 82 1014.5
20260503200018 62 168 2.6 5.2 0.00 0.00 0.00 81 1014.3
20260503195017 62 151 1.7 4.3 0.00 0.00 0.00 81 1014.2
20260503194518 63 135 1.7 5.2 0.00 0.00 0.00 81 1014.1
20260503194019 63 150 1.7 5.2 0.00 0.00 0.00 80 1014.0
20260503193518 63 131 1.7 4.3 0.00 0.00 0.00 80 1013.9
20260503193019 63 170 1.7 5.2 0.00 0.00 0.00 79 1013.9
20260503192518 63 157 1.7 5.2 0.00 0.00 0.00 79 1013.9
20260503191019 63 118 1.7 3.5 0.00 0.00 0.00 78 1013.8
20260503190518 63 149 1.7 5.2 0.00 0.00 0.00 77 1013.8
20260503190018 63 158 0.9 3.5 0.00 0.00 0.00 77 1013.8
20260503185517 63 153 1.7 3.5 0.00 0.00 0.00 77 1013.8
20260503185018 63 160 1.7 5.2 0.00 0.00 0.00 76 1013.8
20260503184517 63 139 1.7 4.3 0.00 0.00 0.00 77 1013.7
20260503184018 63 155 1.7 4.3 0.00 0.00 0.00 77 1013.6
20260503183518 63 137 2.6 5.2 0.00 0.00 0.00 77 1013.6
20260503183018 63 150 2.6 5.2 0.00 0.00 0.00 77 1013.6
20260503182517 64 134 1.7 3.5 0.00 0.00 0.00 77 1013.5
20260503182017 64 147 2.6 5.2 0.00 0.00 0.00 76 1013.5
20260503181518 64 153 2.6 7.0 0.00 0.00 0.00 76 1013.6
20260503181019 64 153 1.7 4.3 0.00 0.00 0.00 76 1013.7
20260503180517 64 149 2.6 6.1 0.00 0.00 0.00 76 1013.7
20260503180018 64 140 2.6 6.1 0.00 0.00 0.00 76 1013.6
20260503175518 65 142 1.7 6.1 0.00 0.00 0.00 75 1013.6
20260503175018 65 142 1.7 4.3 0.00 0.00 0.00 74 1013.5
20260503174518 65 130 2.6 5.2 0.00 0.00 0.00 73 1013.6
20260503174019 65 152 2.6 7.0 0.00 0.00 0.00 72 1013.6
20260503173518 65 143 2.6 5.2 0.00 0.00 0.00 72 1013.6
20260503172517 65 140 2.6 7.8 0.00 0.00 0.00 73 1013.7
20260503172018 65 164 2.6 7.0 0.00 0.00 0.00 73 1013.7
20260503171517 65 164 3.5 6.1 0.00 0.00 0.00 73 1013.7
20260503171018 65 168 3.5 7.8 0.00 0.00 0.00 72 1013.8
20260503170517 65 173 3.5 7.0 0.00 0.00 0.00 72 1013.8
20260503150517 68 118 2.6 7.0 0.00 0.00 0.00 67 1014.1
20260503131017 69 150 2.6 7.8 0.00 0.00 0.00 61 1015.0
20260503130517 69 127 2.6 7.0 0.00 0.00 0.00 62 1014.9
20260503110518 68 164 2.6 6.1 0.00 0.00 0.00 64 1016.0
20260503081517 65 169 2.6 3.5 0.00 0.00 0.00 73 1016.1
20260503081017 65 172 3.5 6.1 0.00 0.00 0.00 74 1016.0
20260503072517 64 163 2.6 5.2 0.00 0.00 0.00 76 1016.4
20260503072017 64 159 1.7 5.2 0.00 0.00 0.00 77 1016.3
20260503071517 63 175 1.7 6.1 0.00 0.00 0.00 78 1016.3
20260503071017 63 143 1.7 3.5 0.00 0.00 0.00 78 1016.3
20260503070517 63 169 1.7 4.3 0.00 0.00 0.00 78 1016.3
20260503054517 60 176 2.6 5.2 0.00 0.00 0.00 85 1015.9
20260503054018 60 172 1.7 6.1 0.00 0.00 0.00 85 1015.8
20260503053518 60 160 2.6 7.0 0.00 0.00 0.00 85 1015.8
20260503053018 60 181 2.6 6.1 0.00 0.00 0.00 85 1015.7
20260503052517 60 166 2.6 7.0 0.00 0.00 0.00 85 1015.6
20260503052017 60 160 1.7 7.0 0.00 0.00 0.00 86 1015.6
20260503051517 59 170 1.7 4.3 0.00 0.00 0.00 85 1015.6
20260503051018 59 188 1.7 6.1 0.00 0.00 0.00 85 1015.5
20260503050518 59 173 1.7 2.6 0.00 0.00 0.00 85 1015.6
20260503050018 59 176 1.7 5.2 0.00 0.00 0.00 85 1015.5
20260503045517 59 167 0.9 7.0 0.00 0.00 0.00 85 1015.5
20260503045017 59 142 1.7 3.5 0.00 0.00 0.00 85 1015.7
20260503044517 59 149 1.7 4.3 0.00 0.00 0.00 85 1015.6
20260503044017 60 188 1.7 3.5 0.00 0.00 0.00 85 1015.7
20260503043516 60 174 1.7 6.1 0.00 0.00 0.00 85 1015.8
20260503043017 60 169 1.7 5.2 0.00 0.00 0.00 85 1015.8
20260503042517 60 159 1.7 5.2 0.00 0.00 0.00 85 1015.9